Location: Saint-Usage
(47.1052°N, 5.2587°E)
Time: 04:42:31
(UTC+01:00)

DX 1 - Visible Passes

Search period start: 29 November 2021 00:00
Search period end: 09 December 2021 00:00
Orbit: 619 x 629 km, 98.4° (Epoch: 28 November)

Date Brightness Start Highest point End Pass type
(mag) Time Alt. Az. Time Alt. Az. Time Alt. Az.
29 Nov ? 07:01:05 10° SE 07:04:51 29° ENE 07:08:39 10° N visible
30 Nov ? 07:19:10 10° SE 07:23:18 42° ENE 07:27:27 10° N visible
02 Dec ? 06:22:47 10° E 06:24:51 13° ENE 06:26:53 10° NNE visible
03 Dec ? 06:40:08 10° ESE 06:43:11 19° ENE 06:46:13 10° NNE visible
04 Dec ? 06:57:54 10° ESE 07:01:34 27° ENE 07:05:14 10° N visible
05 Dec ? 07:15:57 10° SE 07:20:00 38° ENE 07:24:05 10° N visible
06 Dec ? 07:34:11 10° SSE 07:38:29 58° ENE 07:42:48 10° N visible
07 Dec ? 06:19:55 10° E 06:21:34 12° ENE 06:23:14 10° NE visible
08 Dec ? 06:37:04 10° E 06:39:53 17° ENE 06:42:44 10° NNE visible
